Location: Oso Ridge
(35.0450°N, 108.0864°W)
Time: 01:00:13
(UTC-06:00)

Amateur Radio Satellites - All Passes

Search period start: 04 July 2015 00:30
Search period end: 05 July 2015 00:30
Location: Oso Ridge, 35.0450°N, 108.0864°W

Satellite Date Start Highest point End Downlink Frequencies (MHz)
Time Altitude Azimuth
NANOSAT C BR1 04 Jul 00:32:54 00:37:07 73° 283° (WNW) 00:41:16 145.865
ESTCUBE 1 04 Jul 00:37:44 00:41:33 26° 265° (W) 00:45:17 437.505/2401.250
DUCHIFAT 1 04 Jul 00:40:09 00:44:17 60° 284° (WNW) 00:48:23 145.980
TISAT 1 04 Jul 00:40:42 00:44:48 50° 75° (ENE) 00:48:56 437.305
POLYITAN 1 04 Jul 00:44:23 00:48:29 50° 285° (WNW) 00:52:33 437.675
BEESAT 04 Jul 00:51:07 00:51:43 10° 65° (ENE) 00:52:37 436.000
BUGSAT 1 04 Jul 01:00:15 01:04:13 52° 285° (WNW) 01:08:06 437.445
UNISAT 6 04 Jul 01:01:14 01:03:50 15° 291° (WNW) 01:06:16 437.425
SWISSCUBE 04 Jul 01:04:09 01:07:03 17° 67° (ENE) 01:10:09 437.505
ITUPSAT 1 04 Jul 01:09:06 01:12:02 17° 67° (ENE) 01:15:09 437.325
QB50P2 04 Jul 01:14:52 01:18:12 22° 289° (WNW) 01:21:26 145.880/145.840
POPSAT HIP 1 04 Jul 01:15:46 01:19:06 23° 289° (WNW) 01:22:20 437.405
RS-15 04 Jul 01:18:40 01:26:37 26° 105° (ESE) 01:35:12 29.354- 29.394
PCSat 04 Jul 01:21:00 01:26:04 39° 57° (ENE) 01:31:09 145.827
SPROUT 04 Jul 01:32:56 01:36:31 24° 265° (W) 01:40:02 437.525
Oscar 19 04 Jul 02:07:24 02:12:04 36° 97° (E) 02:16:48 437.125/150
KKS-1 04 Jul 02:14:00 02:15:44 12° 67° (ENE) 02:17:43 437.445
TISAT 1 04 Jul 02:19:35 02:20:55 11° 270° (W) 02:21:57 437.305
ITAMSAT 1 04 Jul 02:20:30 02:21:43 11° 89° (E) 02:23:20 435.822/435.867
BEESAT 04 Jul 02:24:15 02:29:00 74° 259° (WSW) 02:33:48 436.000
SO-50 04 Jul 02:26:21 02:31:14 57° 58° (ENE) 02:36:01 436.795
Cosmos 2491 04 Jul 02:39:11 02:47:33 49° 77° (ENE) 02:55:55 435.465 / 435.565
AIST 1 04 Jul 02:39:18 02:42:21 19° 74° (ENE) 02:45:30
SWISSCUBE 04 Jul 02:40:00 02:44:34 45° 261° (W) 02:49:10 437.505
ITUPSAT 1 04 Jul 02:45:01 02:49:36 44° 261° (W) 02:54:12 437.325
PCSat 04 Jul 03:04:58 03:09:17 24° 252° (WSW) 03:13:27 145.827
STARS 04 Jul 03:05:19 03:09:02 28° 71° (ENE) 03:12:49 437.465
YUBILEINY 04 Jul 03:09:41 03:17:17 37° 88° (E) 03:25:04 435.215
RS-15 04 Jul 03:27:11 03:38:04 73° 302° (WNW) 03:49:15 29.354- 29.394
JAS-2 04 Jul 03:28:02 03:32:58 22° 93° (E) 03:38:32 435.910
Oscar 19 04 Jul 03:47:13 03:51:15 23° 291° (WNW) 03:55:10 437.125/150
Gurwin Techsat 1B 04 Jul 03:47:21 03:52:42 84° 285° (WNW) 03:58:01 435.225
KKS-1 04 Jul 03:47:36 03:51:58 53° 260° (W) 03:56:20 437.445
AO-7 04 Jul 03:53:40 03:59:10 20° 92° (E) 04:05:06 29.400- 29.500
ITAMSAT 1 04 Jul 03:56:37 04:01:51 71° 284° (WNW) 04:07:01 435.822/435.867
MOZHAYETS 4 04 Jul 04:02:30 04:05:34 19° 69° (ENE) 04:08:48
SO-50 04 Jul 04:08:39 04:11:20 14° 251° (WSW) 04:13:45 436.795
AIST 1 04 Jul 04:16:18 04:20:04 28° 269° (W) 04:23:43
Cosmos 2491 04 Jul 04:36:40 04:44:07 31° 274° (W) 04:51:18 435.465 / 435.565
STARS 04 Jul 04:42:02 04:45:30 22° 266° (W) 04:48:49 437.465
HORYU 2 04 Jul 04:42:54 04:47:13 47° 100° (E) 04:51:33 437.375
YUBILEINY 04 Jul 05:05:53 05:14:01 42° 285° (WNW) 05:22:04 435.215
JAS-2 04 Jul 05:11:43 05:18:20 62° 286° (WNW) 05:25:40 435.910
Cosmos 2504 04 Jul 05:33:37 05:39:21 29° 88° (E) 05:45:11 435.465 / 435.565
MOZHAYETS 4 04 Jul 05:38:20 05:42:33 36° 263° (W) 05:46:46
AO-7 04 Jul 05:44:26 05:52:48 75° 289° (WNW) 06:01:06 29.400- 29.500
RS-15 04 Jul 05:44:55 05:53:01 22° 329° (NNW) 06:00:57 29.354- 29.394
CUBESAT XI-V 04 Jul 06:03:50 06:07:53 30° 72° (ENE) 06:12:02 437.345
HORYU 2 04 Jul 06:21:06 06:23:30 14° 293° (WNW) 06:25:41 437.375
PRISM 04 Jul 06:29:30 06:31:58 16° 69° (ENE) 06:34:36 437.425
CUTE-I 04 Jul 06:29:47 06:33:24 19° 92° (E) 06:37:12 437.470
STRAND 1 04 Jul 06:48:52 06:53:24 33° 71° (ENE) 06:58:01 437.568
Cubesat XI-IV 04 Jul 07:02:47 07:07:50 41° 98° (E) 07:12:52 437.490
BEESAT 3 04 Jul 07:05:36 07:09:10 31° 113° (ESE) 07:12:49 437.485
BEESAT 2 04 Jul 07:17:13 07:20:51 32° 114° (ESE) 07:24:35 435.950
ISS 04 Jul 07:19:43 07:21:42 16° 129° (SE) 07:23:47 145.825
Cosmos 2504 04 Jul 07:24:56 07:31:23 38° 284° (WNW) 07:37:42 435.465 / 435.565
DANDE 04 Jul 07:25:40 07:30:22 19° 93° (E) 07:34:47 436.750
AO-7 04 Jul 07:40:05 07:44:24 15° 306° (NW) 07:48:13 29.400- 29.500
CUBESAT XI-V 04 Jul 07:41:36 07:45:21 23° 266° (W) 07:49:00 437.345
VERMONT LUNAR 04 Jul 07:45:50 07:48:52 56° 153° (SSE) 07:51:57 437.305
GONETS M04 04 Jul 07:51:36 07:53:53 12° 80° (E) 07:57:00
PHONESAT 2.4 04 Jul 08:00:12 08:01:46 13° 143° (SE) 08:03:27 2401.200-2431.200
BRITE-PL 04 Jul 08:01:18 08:02:53 12° 90° (E) 08:04:41 437.365/2234.400
PRISM 04 Jul 08:03:18 08:07:09 35° 262° (W) 08:10:59 437.425
CUSAT 1 04 Jul 08:04:54 08:11:37 54° 97° (E) 08:16:51 437.405
RS-15 04 Jul 08:07:39 08:11:50 12° 5° (N) 08:16:12 29.354- 29.394
CUTE-I 04 Jul 08:08:38 08:13:45 46° 288° (WNW) 08:18:48 437.470
O/OREOS (USA 219) 04 Jul 08:11:16 08:15:41 65° 291° (WNW) 08:20:08 437.305
HO-68 04 Jul 08:25:42 08:29:14 15° 89° (E) 08:33:15 435.675
STRAND 1 04 Jul 08:28:26 08:32:40 24° 266° (W) 08:36:46 437.568
AIST 2 04 Jul 08:33:09 08:37:18 56° 116° (ESE) 08:41:29 435.215
AUBIESAT-1 04 Jul 08:37:09 08:40:11 36° 69° (ENE) 08:43:21 437.475
Cubesat XI-IV 04 Jul 08:43:34 08:47:42 22° 292° (WNW) 08:51:39 437.490
BEESAT 3 04 Jul 08:44:05 08:47:12 20° 309° (NW) 08:50:14 437.485
ISS 04 Jul 08:54:50 08:57:54 38° 323° (NW) 09:00:57 145.825
BEESAT 2 04 Jul 08:55:56 08:59:01 20° 310° (NW) 09:02:02 435.950
CUTE 1.7 + AOD 2 04 Jul 08:57:53 09:00:47 18° 93° (E) 09:03:49 437.475
CANX-2 04 Jul 09:00:52 09:04:11 22° 94° (E) 09:07:35 2200.000
DANDE 04 Jul 09:05:56 09:13:30 64° 279° (W) 09:19:22 436.750
M-CUBED/EXP-1 PRIME 04 Jul 09:11:03 09:14:15 51° 255° (WSW) 09:17:32 437.505
CINEMA 3 04 Jul 09:11:50 09:13:16 12° 91° (E) 09:14:58 145.822/145.860
GOMX 1 04 Jul 09:14:12 09:18:18 54° 100° (E) 09:22:21 467.674
VERMONT LUNAR 04 Jul 09:22:58 09:25:54 36° 349° (NNW) 09:28:50 437.305
PHONESAT 2.4 04 Jul 09:36:00 09:39:25 76° 156° (SSE) 09:42:52 2401.200-2431.200
BRITE-PL 04 Jul 09:37:45 09:41:47 41° 287° (WNW) 09:45:40 437.365/2234.400
GONETS M04 04 Jul 09:40:48 09:49:34 79° 95° (E) 09:58:21
SEEDS 04 Jul 09:45:36 09:49:47 55° 100° (E) 09:53:58 437.485
CUSAT 1 04 Jul 09:49:44 09:54:14 19° 285° (WNW) 09:57:50 437.405
AAUSAT CUBESAT 2 04 Jul 09:57:22 10:01:28 49° 99° (E) 10:05:33 437.432
DOVE 4 04 Jul 09:59:26 10:03:34 70° 283° (WNW) 10:07:43 437.250
CUBEBUG 2 04 Jul 10:00:24 10:03:35 21° 94° (E) 10:06:57 437.445
ZACube-1 04 Jul 10:04:37 10:06:43 14° 92° (E) 10:09:04 437.345
Cosmos 2499 04 Jul 10:05:52 10:09:57 17° 84° (E) 10:14:26 435.465 / 435.565
HO-68 04 Jul 10:10:39 10:17:50 82° 286° (WNW) 10:25:00 435.675
Oscar 11 04 Jul 10:12:39 10:16:31 31° 96° (E) 10:20:25 145.826/435.025
AIST 2 04 Jul 10:13:55 10:16:16 14° 313° (NW) 10:18:27 435.215
DELFI C3 04 Jul 10:15:11 10:18:19 22° 94° (E) 10:21:34 145.870
UNISAT 6 04 Jul 10:19:40 10:23:09 25° 72° (ENE) 10:26:41 437.425
RS-15 04 Jul 10:20:27 10:30:00 29° 39° (NE) 10:40:12 29.354- 29.394
COMPASS 1 04 Jul 10:23:13 10:27:25 64° 284° (WNW) 10:31:36 437.405
QB50P2 04 Jul 10:30:15 10:32:11 13° 68° (ENE) 10:34:20 145.880/145.840
POPSAT HIP 1 04 Jul 10:31:06 10:32:58 13° 68° (ENE) 10:35:04 437.405
CUTE 1.7 + AOD 2 04 Jul 10:32:57 10:36:46 31° 287° (WNW) 10:40:32 437.475
CANX-2 04 Jul 10:36:29 10:40:05 26° 288° (WNW) 10:43:35 2200.000
FUNcube-1 04 Jul 10:39:24 10:43:17 35° 97° (E) 10:47:16 145.935
CINEMA 3 04 Jul 10:46:47 10:50:46 44° 285° (WNW) 10:54:49 145.822/145.860
UWE-3 04 Jul 10:51:08 10:55:21 69° 101° (E) 10:59:39 435.000/436.395/437.385
VERMONT LUNAR 04 Jul 11:00:26 11:03:15 29° 5° (N) 11:06:05 437.305
ANTELSAT 04 Jul 11:03:16 11:07:34 85° 78° (ENE) 11:11:51 437.575/2403.000
QB50P1 04 Jul 11:07:58 11:11:50 35° 73° (ENE) 11:15:44 145.935-145.965
PHONESAT 2.4 04 Jul 11:14:25 11:17:37 36° 351° (N) 11:20:52 2401.200-2431.200
VELOX 1 04 Jul 11:15:31 11:18:10 16° 92° (E) 11:21:00 145.980
TIGRISAT 04 Jul 11:15:44 11:20:02 71° 259° (WSW) 11:24:17 435.000
NANOSAT C BR1 04 Jul 11:21:58 11:26:05 52° 75° (ENE) 11:30:13 145.865
SEEDS 04 Jul 11:23:52 11:25:09 11° 293° (WNW) 11:26:11 437.485
DX 1 04 Jul 11:24:29 11:28:34 39° 99° (E) 11:32:38 434.975-435.025
DUCHIFAT 1 04 Jul 11:28:54 11:33:04 62° 76° (ENE) 11:37:16 145.980
POLYITAN 1 04 Jul 11:33:43 11:37:58 77° 78° (ENE) 11:42:12 437.675
AAUSAT CUBESAT 2 04 Jul 11:35:00 11:36:40 12° 292° (WNW) 11:38:06 437.432
CUBEBUG 2 04 Jul 11:36:43 11:40:17 26° 288° (WNW) 11:43:50 437.445
ZACube-1 04 Jul 11:39:19 11:43:17 40° 286° (WNW) 11:47:18 437.345
GONETS M04 04 Jul 11:41:27 11:47:32 19° 294° (WNW) 11:53:08
UKube-1 04 Jul 11:45:28 11:49:47 66° 101° (ESE) 11:54:03 .
BUGSAT 1 04 Jul 11:46:30 11:50:42 66° 76° (ENE) 11:54:53 437.445
Oscar 11 04 Jul 11:49:22 11:52:30 19° 290° (WNW) 11:55:30 145.826/435.025
DELFI C3 04 Jul 11:50:04 11:53:22 23° 288° (WNW) 11:56:34 145.870
Cosmos 2499 04 Jul 11:55:28 12:02:29 64° 279° (W) 12:09:31 435.465 / 435.565
50 SAT 04 Jul 11:55:36 11:59:28 60° 100° (E) 12:03:21 437.505
UNISAT 6 04 Jul 11:56:28 11:59:54 22° 265° (W) 12:03:14 437.425
HUMSAT D 04 Jul 11:59:15 12:03:21 57° 284° (WNW) 12:07:27 437.325/437.525
AISAT 04 Jul 12:01:14 12:05:35 59° 101° (E) 12:09:55 437.250
HO-68 04 Jul 12:01:15 12:04:39 14° 302° (WNW) 12:07:36 435.675
QB50P2 04 Jul 12:03:39 12:07:44 44° 261° (W) 12:11:49 145.880/145.840
POPSAT HIP 1 04 Jul 12:04:25 12:08:30 45° 261° (W) 12:12:35 437.405
FUNcube-1 04 Jul 12:16:41 12:19:23 16° 290° (WNW) 12:21:57 145.935
CUBEBUG 1 04 Jul 12:19:37 12:23:50 49° 99° (E) 12:28:02 437.445
RS-15 04 Jul 12:32:15 12:44:07 86° 242° (WSW) 12:56:22 29.354- 29.394
ESTCUBE 1 04 Jul 12:32:44 12:37:18 85° 104° (ESE) 12:41:49 437.505/2401.250
VERMONT LUNAR 04 Jul 12:37:17 12:40:26 76° 21° (NNE) 12:43:36 437.305
QB50P1 04 Jul 12:45:12 12:47:51 15° 268° (W) 12:50:18 145.935-145.965
VELOX 1 04 Jul 12:50:49 12:54:54 37° 287° (WNW) 12:58:55 145.980
PHONESAT 2.4 04 Jul 12:52:53 12:56:06 35° 8° (N) 12:59:20 2401.200-2431.200
NANOSAT C BR1 04 Jul 13:01:25 13:02:18 10° 270° (W) 13:02:51 145.865
DX 1 04 Jul 13:01:52 13:04:30 15° 292° (WNW) 13:06:59 434.975-435.025
Oscar 19 04 Jul 13:21:07 13:25:47 38° 72° (ENE) 13:30:32 437.125/150
SPROUT 04 Jul 13:21:54 13:26:10 72° 101° (E) 13:30:24 437.525
YUBILEINY 04 Jul 13:25:33 13:29:29 14° 62° (ENE) 13:34:06 435.215
Gurwin Techsat 1B 04 Jul 13:29:01 13:31:01 12° 64° (ENE) 13:33:19 435.225
ITAMSAT 1 04 Jul 13:35:01 13:37:26 14° 65° (ENE) 13:40:08 435.822/435.867
AISAT 04 Jul 13:40:24 13:41:42 11° 294° (WNW) 13:42:45 437.250
CUBEBUG 1 04 Jul 13:57:46 13:59:48 13° 293° (WNW) 14:01:36 437.445
TISAT 1 04 Jul 14:03:54 14:07:59 54° 285° (WNW) 14:12:03 437.305
VERMONT LUNAR 04 Jul 14:14:53 14:17:08 18° 215° (SW) 14:19:20 437.305
BEESAT 04 Jul 14:27:59 14:32:24 36° 98° (E) 14:36:48 436.000
PHONESAT 2.4 04 Jul 14:30:51 14:34:19 81° 206° (SSW) 14:37:49 2401.200-2431.200
SWISSCUBE 04 Jul 14:43:20 14:48:05 59° 101° (E) 14:52:49 437.505
RS-15 04 Jul 14:47:42 14:55:25 18° 258° (WSW) 15:02:16 29.354- 29.394
ITUPSAT 1 04 Jul 14:48:37 14:53:24 60° 101° (E) 14:58:09 437.325
AO-7 04 Jul 14:49:41 14:55:35 23° 59° (ENE) 15:01:49 29.400- 29.500
Oscar 19 04 Jul 15:01:20 15:05:17 21° 266° (W) 15:09:05 437.125/150
Gurwin Techsat 1B 04 Jul 15:05:08 15:10:26 74° 257° (WSW) 15:15:46 435.225
AIST 1 04 Jul 15:06:32 15:08:32 13° 88° (E) 15:10:46
ITAMSAT 1 04 Jul 15:11:16 15:16:27 66° 259° (W) 15:21:40 435.822/435.867
YUBILEINY 04 Jul 15:19:07 15:27:55 84° 83° (E) 15:36:44 435.215
JAS-2 04 Jul 15:22:07 15:26:47 36° 71° (ENE) 15:31:39 435.910
ISS 04 Jul 15:24:42 15:27:51 49° 39° (NE) 15:31:00 145.825
Cosmos 2491 04 Jul 15:35:38 15:44:15 63° 93° (E) 15:52:57 435.465 / 435.565
HORYU 2 04 Jul 15:38:18 15:42:05 29° 72° (ENE) 15:45:57 437.375
KKS-1 04 Jul 15:42:02 15:46:07 36° 98° (E) 15:50:12 437.445
PCSat 04 Jul 15:58:58 16:04:20 71° 114° (ESE) 16:09:45 145.827
BEESAT 04 Jul 16:06:27 16:10:00 20° 291° (WNW) 16:13:25 436.000
PHONESAT 2.4 04 Jul 16:10:03 16:12:01 14° 217° (SW) 16:13:56 2401.200-2431.200
SWISSCUBE 04 Jul 16:23:12 16:25:29 13° 294° (WNW) 16:27:31 437.505
ITUPSAT 1 04 Jul 16:28:35 16:30:50 13° 294° (WNW) 16:32:49 437.325
STARS 04 Jul 16:33:42 16:38:05 88° 97° (E) 16:42:28 437.465
SO-50 04 Jul 16:37:38 16:41:56 39° 114° (ESE) 16:46:26 436.795
AO-7 04 Jul 16:39:20 16:47:40 74° 255° (WSW) 16:56:04 29.400- 29.500
AIST 1 04 Jul 16:41:41 16:45:50 41° 281° (W) 16:50:01
JUGNU 04 Jul 16:42:16 16:45:21 14° 170° (S) 16:48:29 437.505
O/OREOS (USA 219) 04 Jul 16:47:17 16:48:58 12° 56° (NE) 16:50:54 437.305
AIST 2 04 Jul 16:59:02 17:01:30 15° 48° (NE) 17:04:05 435.215
ISS 04 Jul 17:02:35 17:03:58 12° 232° (SW) 17:05:13 145.825
BEESAT 3 04 Jul 17:04:21 17:08:24 89° 241° (WSW) 17:12:23 437.485
JAS-2 04 Jul 17:08:16 17:12:10 21° 267° (W) 17:15:57 435.910
Cosmos 2504 04 Jul 17:12:53 17:20:12 51° 79° (E) 17:28:05 435.465 / 435.565
HORYU 2 04 Jul 17:15:24 17:18:46 20° 266° (W) 17:22:01 437.375
BEESAT 2 04 Jul 17:16:41 17:20:46 84° 243° (WSW) 17:24:47 435.950
YUBILEINY 04 Jul 17:18:35 17:23:50 17° 278° (W) 17:28:29 435.215
KKS-1 04 Jul 17:19:31 17:22:30 17° 291° (WNW) 17:25:20 437.445
Cosmos 2491 04 Jul 17:34:47 17:41:51 25° 291° (WNW) 17:48:33 435.465 / 435.565
MOZHAYETS 4 04 Jul 17:36:11 17:40:49 68° 101° (E) 17:45:27
SRMSAT 04 Jul 17:36:28 17:37:35 11° 166° (SSE) 17:38:50 437.500
PCSat 04 Jul 17:45:04 17:48:23 16° 312° (NW) 17:51:30 145.827
CUTE-I 04 Jul 17:48:26 17:52:32 24° 68° (ENE) 17:56:49 437.470
SO-50 04 Jul 18:18:51 18:22:39 23° 311° (NW) 18:26:26 436.795
Cubesat XI-IV 04 Jul 18:21:31 18:26:38 49° 73° (ENE) 18:31:50 437.490
O/OREOS (USA 219) 04 Jul 18:24:24 18:28:52 59° 253° (WSW) 18:33:20 437.305
JUGNU 04 Jul 18:29:42 18:33:41 18° 180° (S) 18:37:38 437.505
AIST 2 04 Jul 18:36:21 18:40:22 45° 245° (WSW) 18:44:17 435.215
AO-7 04 Jul 18:39:48 18:42:00 11° 273° (W) 18:43:19 29.400- 29.500
STRAND 1 04 Jul 19:04:03 19:06:37 14° 91° (E) 19:09:28 437.568
Cosmos 2504 04 Jul 19:05:51 19:12:08 27° 273° (W) 19:18:30 435.465 / 435.565
BRITE-PL 04 Jul 19:08:06 19:11:06 16° 69° (ENE) 19:14:16 437.365/2234.400
MOZHAYETS 4 04 Jul 19:16:18 19:17:33 11° 294° (WNW) 19:18:29
SRMSAT 04 Jul 19:22:21 19:26:03 17° 175° (S) 19:29:48 437.500
CUTE-I 04 Jul 19:27:26 19:32:25 38° 262° (W) 19:37:24 437.470
CUBESAT XI-V 04 Jul 19:40:25 19:45:06 70° 283° (WNW) 19:49:42 437.345
PRISM 04 Jul 19:48:34 19:52:28 38° 98° (E) 19:56:22 437.425
DANDE 04 Jul 19:52:38 19:55:20 74° 81° (E) 19:57:54 436.750
CANX-2 04 Jul 19:53:01 19:54:01 11° 67° (ENE) 19:55:17 2200.000
GONETS M04 04 Jul 19:55:49 20:03:18 33° 72° (ENE) 20:10:58
Cubesat XI-IV 04 Jul 20:03:27 20:07:04 18° 268° (W) 20:10:28 437.490
GOMX 1 04 Jul 20:18:21 20:23:17 46° 75° (ENE) 20:27:59 467.674
JUGNU 04 Jul 20:18:44 20:22:00 15° 190° (S) 20:25:13 437.505
CUSAT 1 04 Jul 20:31:02 20:31:50 11° 267° (W) 20:32:29 437.405
SEEDS 04 Jul 20:34:57 20:38:19 25° 72° (ENE) 20:41:48 437.485
HO-68 04 Jul 20:35:19 20:42:12 55° 70° (ENE) 20:49:09 435.675
STRAND 1 04 Jul 20:41:13 20:46:15 55° 286° (WNW) 20:51:14 437.568
BRITE-PL 04 Jul 20:43:46 20:49:16 60° 260° (W) 20:54:27 437.365/2234.400
AAUSAT CUBESAT 2 04 Jul 20:45:36 20:48:44 22° 71° (ENE) 20:51:58 437.432
M-CUBED/EXP-1 PRIME 04 Jul 20:55:07 20:57:29 15° 98° (E) 21:00:08 437.505
CUBEBUG 2 04 Jul 20:57:14 20:59:01 13° 69° (ENE) 21:01:00 437.445
DOVE 4 04 Jul 21:01:05 21:06:02 80° 77° (ENE) 21:10:42 437.250
Oscar 11 04 Jul 21:05:19 21:08:01 17° 69° (ENE) 21:10:53 145.826/435.025
SRMSAT 04 Jul 21:10:46 21:14:32 17° 185° (S) 21:18:16 437.500
COMPASS 1 04 Jul 21:10:59 21:15:00 53° 75° (ENE) 21:19:04 437.405
CUTE 1.7 + AOD 2 04 Jul 21:21:55 21:26:06 67° 259° (W) 21:30:18 437.475
PRISM 04 Jul 21:25:08 21:27:37 15° 292° (WNW) 21:29:56 437.425
CANX-2 04 Jul 21:25:26 21:29:32 53° 261° (W) 21:33:39 2200.000
FUNcube-1 04 Jul 21:33:00 21:35:54 19° 70° (ENE) 21:38:54 145.935
CINEMA 3 04 Jul 21:44:50 21:49:24 76° 259° (WSW) 21:53:47 145.822/145.860
UWE-3 04 Jul 21:45:22 21:49:15 36° 74° (ENE) 21:53:08 435.000/436.395/437.385
Cosmos 2499 04 Jul 21:49:00 21:56:11 37° 75° (ENE) 22:03:56 435.465 / 435.565
GONETS M04 04 Jul 21:52:11 22:00:25 47° 270° (W) 22:08:31
AUBIESAT-1 04 Jul 21:53:32 21:57:49 60° 105° (ESE) 22:02:21 437.475
GOMX 1 04 Jul 21:58:05 22:01:35 17° 267° (W) 22:04:45 467.674
SEEDS 04 Jul 22:10:50 22:14:05 21° 266° (W) 22:17:16 437.485
VELOX 1 04 Jul 22:12:06 22:12:55 11° 66° (ENE) 22:14:02 145.980
DX 1 04 Jul 22:17:21 22:20:49 24° 70° (ENE) 22:24:21 434.975-435.025
AAUSAT CUBESAT 2 04 Jul 22:20:50 22:24:14 24° 265° (W) 22:27:35 437.432
HO-68 04 Jul 22:24:37 22:30:19 24° 266° (W) 22:35:47 435.675
M-CUBED/EXP-1 PRIME 04 Jul 22:28:18 22:32:25 46° 290° (WNW) 22:36:47 437.505
CUBEBUG 2 04 Jul 22:31:14 22:35:24 46° 261° (W) 22:39:28 437.445
ZACube-1 04 Jul 22:31:43 22:35:57 79° 258° (WSW) 22:40:08 437.345
DELFI C3 04 Jul 22:33:07 22:37:04 59° 260° (W) 22:41:02 145.870
UKube-1 04 Jul 22:37:09 22:41:06 36° 72° (ENE) 22:45:06 .
50 SAT 04 Jul 22:37:21 22:40:10 20° 71° (ENE) 22:43:05 437.505
Oscar 11 04 Jul 22:40:01 22:43:58 34° 263° (W) 22:47:53 145.826/435.025
HUMSAT D 04 Jul 22:47:33 22:51:36 62° 76° (ENE) 22:55:40 437.325/437.525
AISAT 04 Jul 22:55:50 22:59:52 35° 73° (ENE) 23:03:59 437.250
ANTELSAT 04 Jul 22:58:49 23:02:14 22° 95° (E) 23:05:48 437.575/2403.000
SRMSAT 04 Jul 23:01:18 23:03:00 11° 194° (SSW) 23:04:34 437.500
FUNcube-1 04 Jul 23:08:22 23:12:05 28° 264° (W) 23:15:40 145.935
TIGRISAT 04 Jul 23:10:41 23:14:29 29° 96° (E) 23:18:25 435.000
CUBEBUG 1 04 Jul 23:12:46 23:16:30 28° 72° (ENE) 23:20:19 437.445
NANOSAT C BR1 04 Jul 23:12:51 23:13:33 10° 90° (E) 23:14:32 145.865
DUCHIFAT 1 04 Jul 23:18:44 23:20:26 12° 91° (E) 23:22:22 145.980
UWE-3 04 Jul 23:23:24 23:25:58 15° 268° (W) 23:28:18 435.000/436.395/437.385
POLYITAN 1 04 Jul 23:23:40 23:26:08 16° 92° (E) 23:28:48 437.675
ESTCUBE 1 04 Jul 23:28:58 23:33:21 52° 75° (ENE) 23:37:48 437.505/2401.250
AUBIESAT-1 04 Jul 23:30:22 23:32:12 12° 296° (WNW) 23:33:51 437.475
BUGSAT 1 04 Jul 23:34:19 23:35:33 11° 91° (E) 23:37:02 437.445
Cosmos 2499 04 Jul 23:42:01 23:49:21 40° 270° (W) 23:57:02 435.465 / 435.565
VELOX 1 04 Jul 23:44:34 23:49:00 64° 259° (W) 23:53:26 145.980
UNISAT 6 04 Jul 23:50:08 23:54:33 90° 91° (E) 23:59:04 437.425
QB50P2 04 Jul 23:52:11 23:56:03 35° 98° (E) 23:59:56 145.880/145.840
POPSAT HIP 1 04 Jul 23:52:49 23:56:39 34° 97° (E) 00:00:31 437.405
DX 1 04 Jul 23:53:17 23:56:58 25° 264° (W) 00:00:35 434.975-435.025
50 SAT 05 Jul 00:11:41 00:14:42 22° 265° (W) 00:17:39 437.505
SPROUT 05 Jul 00:12:54 00:16:49 36° 73° (ENE) 00:20:47 437.525
UKube-1 05 Jul 00:14:35 00:17:24 16° 267° (W) 00:20:01 .
